TimeEDT,TemperatureF,Dew PointF,Humidity,Sea Level PressureIn,VisibilityMPH,Wind Direction,Wind SpeedMPH,Gust SpeedMPH,PrecipitationIn,Events,Conditions,WindDirDegrees,DateUTC
12:54 AM,35.1,19.0,52,29.97,10.0,West,4.6,-,N/A,,Clear,260,2013-03-24 04:54:00
1:54 AM,28.0,16.0,61,29.97,10.0,Calm,Calm,-,N/A,,Clear,0,2013-03-24 05:54:00
2:54 AM,30.0,18.0,61,29.97,10.0,Calm,Calm,-,N/A,,Clear,0,2013-03-24 06:54:00
3:54 AM,25.0,17.1,72,29.97,10.0,WNW,3.5,-,N/A,,Clear,300,2013-03-24 07:54:00
4:54 AM,27.0,18.0,69,29.98,10.0,WNW,5.8,-,N/A,,Clear,290,2013-03-24 08:54:00
5:54 AM,28.9,18.0,64,29.99,10.0,West,4.6,-,N/A,,Clear,260,2013-03-24 09:54:00
6:54 AM,25.0,16.0,69,29.98,10.0,Calm,Calm,-,N/A,,Clear,0,2013-03-24 10:54:00
7:54 AM,30.9,21.0,67,29.98,10.0,West,3.5,-,N/A,,Clear,280,2013-03-24 11:54:00
8:54 AM,37.0,21.9,54,29.98,10.0,NW,8.1,-,N/A,,Clear,310,2013-03-24 12:54:00
9:54 AM,39.9,18.0,41,29.94,10.0,NNW,15.0,20.7,N/A,,Clear,330,2013-03-24 13:54:00
10:54 AM,42.1,17.1,37,29.91,10.0,NNW,11.5,-,N/A,,Clear,340,2013-03-24 14:54:00
11:54 AM,43.0,16.0,34,29.89,10.0,Variable,3.5,-,N/A,,Clear,0,2013-03-24 15:54:00
12:54 PM,44.1,16.0,32,29.86,10.0,NW,6.9,-,N/A,,Clear,320,2013-03-24 16:54:00
1:54 PM,45.0,16.0,31,29.81,9.0,Variable,3.5,-,N/A,,Clear,0,2013-03-24 17:54:00
2:54 PM,42.1,21.0,43,29.78,10.0,ESE,12.7,-,N/A,,Clear,120,2013-03-24 18:54:00
3:54 PM,39.9,21.0,47,29.76,10.0,ESE,9.2,-,N/A,,Clear,110,2013-03-24 19:54:00
4:54 PM,39.0,23.0,53,29.74,10.0,ESE,9.2,-,N/A,,Clear,110,2013-03-24 20:54:00
5:54 PM,37.9,23.0,55,29.73,10.0,East,8.1,-,N/A,,Scattered Clouds,80,2013-03-24 21:54:00
6:54 PM,37.9,23.0,55,29.75,10.0,East,4.6,-,N/A,,Overcast,80,2013-03-24 22:54:00
7:54 PM,37.0,25.0,62,29.76,10.0,ESE,4.6,-,N/A,,Overcast,120,2013-03-24 23:54:00
8:54 PM,37.0,25.0,62,29.78,10.0,SE,4.6,-,N/A,,Overcast,130,2013-03-25 00:54:00
9:54 PM,37.0,26.1,65,29.76,10.0,East,4.6,-,N/A,,Overcast,100,2013-03-25 01:54:00
10:54 PM,37.0,27.0,67,29.73,10.0,NE,4.6,-,N/A,,Overcast,50,2013-03-25 02:54:00
11:54 PM,37.0,27.0,67,29.67,10.0,East,8.1,-,N/A,,Overcast,80,2013-03-25 03:54:00